Powrót do katalogu

COSMOS 1661

AktywnyNawigacjaHEO
NORAD 15827·PAYLOAD·🇷🇺 Russia

Wystrzelony Jun 18, 1985 z Plesetsk Cosmodrome

Loading…

Następne Przeloty (najbliższe 24 godziny)

TLE

ŚwieżeSource: Space-Track

Epoka: Sep 14, 2026, 22:19 UTC

1 15827U 85049A   26257.93006719 -.00000846  00000-0  00000-0 0  9995
2 15827  67.7409 102.9596 5914442  59.8231 345.8769  2.00556541302091

Śledź COSMOS 1661 w czasie rzeczywistym z AllMySat

Download on the App Store